Bar Harbor, ME

11:19 PM EDT on October 15, 2019 (GMT -0400)
Hancock County-Bar Harbor

Weather History for KBHB - June, 2019

Change the Weather History Date:

Wednesday, June 5, 2019

  Actual Average Record
Temperature  
Mean Temperature 58 °F -  
Max Temperature 64 °F 73 °F 83 °F (1949)
Min Temperature 51 °F 49 °F 37 °F (2015)
Degree Days  
Heating Degree Days 8    
Growing Degree Days 8 (Base 50)    
Moisture  
Dew Point 50 °F    
Average Humidity 81    
Maximum Humidity 93    
Minimum Humidity 65    
Precipitation  
Precipitation 0.01 in - - ()
Sea Level Pressure  
Sea Level Pressure 29.85 in    
Wind  
Wind Speed 8 mph (SSW)    
Max Wind Speed 18 mph    
Max Gust Speed -    
Visibility 10 miles    
Events Rain    
Averages and records for this station are not official NWS values.
T = Trace of Precipitation, MM = Missing Value Source: NWS Daily Summary

Daily Weather History Graph

Daily Weather History Graph

Search for Another Location

Airport or City:

Astronomy

Jun. 05, 2019 Rise Set
Actual Time 4:50 AM EDT 8:13 PM EDT
Civil Twilight 4:14 AM EDT 8:50 PM EDT
Nautical Twilight 3:26 AM EDT 9:37 PM EDT
Astronomical Twilight 2:27 AM EDT 10:37 PM EDT
Moon 6:52 AM EDT (6/5) 10:36 PM EDT (6/5)
Length of Visible Light 16h 35m
Length of Day
15h 23m
Waxing Crescent, 6% of the Moon is Illuminated
Jun 5
Waxing Crescent
Jun 10
First Quarter
Jun 17
Full
Jun 25
Last Quarter
Jul 2
New

Hourly Weather History & Observations

Time (EDT) Temp. Dew Point Humidity Pressure Visibility Wind Dir Wind Speed Gust Speed Precip Events Conditions
12:56 AM 51.1 °F 46.0 °F 83% 29.91 in 10.0 mi SSE 4.6 mph - N/A   Overcast
1:56 AM 52.0 °F 46.0 °F 80% 29.88 in 10.0 mi SSW 9.2 mph - N/A   Overcast
2:56 AM 52.0 °F 46.0 °F 80% 29.87 in 10.0 mi SSW 11.5 mph - N/A   Overcast
3:56 AM 52.0 °F 46.0 °F 80% 29.87 in 10.0 mi SSW 9.2 mph - N/A   Overcast
4:56 AM 52.0 °F 46.0 °F 80% 29.87 in 10.0 mi SSW 9.2 mph - 0.00 in Rain Light Rain
5:56 AM 51.1 °F 46.9 °F 86% 29.87 in 10.0 mi SW 8.1 mph - 0.00 in Rain Light Rain
6:56 AM 51.1 °F 48.0 °F 89% 29.87 in 10.0 mi SW 4.6 mph - 0.00 in   Overcast
7:56 AM 51.1 °F 48.9 °F 92% 29.88 in 10.0 mi SW 4.6 mph - N/A   Overcast
8:34 AM 51.8 °F 48.2 °F 88% 29.87 in 10.0 mi SSW 10.4 mph - N/A   Overcast
8:50 AM 51.8 °F 48.2 °F 88% 29.86 in 10.0 mi SSW 11.5 mph - N/A   Overcast
8:56 AM 51.1 °F 48.9 °F 92% 29.87 in 10.0 mi SSW 11.5 mph - N/A   Overcast
9:17 AM 51.8 °F 48.2 °F 88% 29.85 in 10.0 mi SSW 12.7 mph - N/A   Overcast
9:42 AM 55.4 °F 50.0 °F 82% 29.84 in 10.0 mi SW 8.1 mph - N/A   Partly Cloudy
9:56 AM 55.9 °F 50.0 °F 80% 29.86 in 10.0 mi South 6.9 mph - N/A   Clear
10:24 AM 55.4 °F 50.0 °F 82% 29.84 in 10.0 mi SSW 8.1 mph - N/A   Overcast
10:56 AM 57.9 °F 51.1 °F 78% 29.86 in 10.0 mi SSW 9.2 mph - N/A   Overcast
11:56 AM 59.0 °F 52.0 °F 78% 29.84 in 10.0 mi South 12.7 mph - N/A   Mostly Cloudy
12:08 PM 59.0 °F 51.8 °F 77% 29.83 in 10.0 mi South 11.5 mph - N/A   Partly Cloudy
12:56 PM 60.1 °F 52.0 °F 75% 29.84 in 10.0 mi SSW 12.7 mph - N/A   Clear
1:56 PM 62.1 °F 53.1 °F 72% 29.82 in 10.0 mi SSW 15.0 mph - N/A   Clear
2:56 PM 62.1 °F 52.0 °F 70% 29.82 in 10.0 mi South 18.4 mph - N/A   Clear
3:56 PM 64.0 °F 52.0 °F 65% 29.81 in 10.0 mi SSW 13.8 mph - N/A   Clear
4:56 PM 59.0 °F 52.0 °F 78% 29.83 in 10.0 mi SSW 13.8 mph - N/A   Scattered Clouds
5:56 PM 60.1 °F 52.0 °F 75% 29.83 in 10.0 mi SSW 8.1 mph - N/A   Overcast
6:56 PM 57.0 °F 51.1 °F 81% 29.84 in 10.0 mi SSW 11.5 mph - N/A   Overcast
7:56 PM 55.9 °F 50.0 °F 80% 29.84 in 10.0 mi SSW 4.6 mph - N/A   Overcast
8:56 PM 55.9 °F 50.0 °F 80% 29.83 in 10.0 mi Calm Calm - N/A   Overcast
9:56 PM 55.9 °F 51.1 °F 84% 29.83 in 10.0 mi Calm Calm - N/A   Overcast
10:56 PM 55.0 °F 51.1 °F 86% 29.82 in 10.0 mi SSW 3.5 mph - 0.00 in Rain Light Rain
11:56 PM 54.0 °F 52.0 °F 93% 29.81 in 10.0 mi Calm Calm - 0.01 in Rain Light Rain